[[{"header":{"parameterUnit":"m.s-1","parameterCategory":1,"la1":30.2991,"la2":30.254,"lo1":-89.0895,"lo2":-89.0444,"dy":0.0017,"dx":0.0017,"nx":28,"ny":28,"refTime":"2025-03-31T09:00:00:Z","depth":0,"parameterNumber":2,"parameterNumberName":"U-component_of_WINDS"},"data":[0,0,0,0,0,0,0,0,0,0,0,0,0,0,0,0,0,0,0,0,0,0,0,0,0,0,0,0,0,0,0,0,0,0,0,0,0,0,0,0,0,0,0,0,0,0,0,0,0,0,0,0,0,0,0,0,0,0,-2.8496,-2.8497,0,-2.8544,-2.8545,-2.8545,-2.8486,-2.8484,-2.8481,-2.8479,-2.8531,-2.8534,-2.8537,0,0,0,0,0,0,0,0,0,0,0,0,0,-2.8356,-2.8359,-2.8496,-2.8497,-2.8498,-2.8544,-2.8545,-2.8546,-2.8486,-2.8483,-2.8481,-2.8478,-2.853,-2.8534,-2.8538,0,0,0,0,0,0,0,0,0,0,0,0,0,-2.8412,-2.836,-2.8496,-2.8474,-2.8472,-2.8544,-2.8545,-2.8546,-2.8487,-2.8483,-2.848,-2.8477,-2.8528,-2.8533,-2.8538,-2.8636,0,0,-2.8554,-2.8556,0,0,0,0,0,0,0,0,-2.8409,-2.8417,-2.8476,-2.8475,-2.8474,-2.8506,-2.8514,-2.8576,-2.8488,-2.8481,-2.8479,-2.8475,-2.8525,-2.853,-2.8547,-2.8638,-2.8641,-2.8554,-2.8558,-2.856,-2.8561,0,0,0,0,0,0,0,-2.8405,-2.8415,-2.8515,-2.8477,-2.8476,-2.8462,-2.8466,-2.8526,-2.8521,-2.8481,-2.8477,-2.8484,-2.8524,-2.8542,-2.8547,-2.8641,-2.8554,-2.8559,-2.8562,-2.8564,-2.8816,-2.882,0,0,0,0,0,0,-2.8404,-2.8412,-2.8514,-2.8517,-2.8432,-2.8467,-2.8472,-2.8499,-2.852,-2.852,-2.8486,-2.8481,-2.8535,-2.8542,-2.8549,-2.8665,-2.856,-2.8565,-2.8568,-2.8813,-2.8817,-2.8821,0,0,0,0,0,0,-2.8401,-2.8413,-2.8512,-2.8463,-2.8475,-2.8473,-2.8504,-2.8501,-2.8519,-2.8524,-2.8523,-2.8505,-2.8532,-2.8542,-2.8615,-2.8666,-2.8567,-2.8572,-2.8808,-2.8814,-2.8819,-2.8897,0,0,0,0,0,0,-2.8397,-2.8413,-2.8449,-2.8465,-2.8478,-2.8576,-2.8507,-2.8505,-2.8528,-2.8521,-2.8542,-2.8542,-2.8531,-2.8607,-2.862,-2.8671,-2.8576,-2.8804,-2.8811,-2.8817,-2.889,-2.8905,-2.8917,0,0,0,0,0,-2.8392,-2.8469,-2.8451,-2.8464,-2.8523,-2.8579,-2.8587,-2.8571,-2.8532,-2.8569,-2.8572,-2.8541,-2.8658,-2.8615,-2.8629,-2.8682,-2.8801,-2.8809,-2.8817,-2.8884,-2.8902,-2.8917,0,0,0,0,0,0,-2.846,-2.8471,-2.8451,-2.8535,-2.8557,-2.8569,-2.8615,-2.8591,-2.8624,-2.8616,-2.8597,-2.8602,-2.868,-2.8688,-2.864,-2.8778,-2.8723,-2.8734,-2.877,-2.8786,-2.88,-2.8796,-2.858,0,0,0,0,0,-2.8485,-2.8529,-2.8536,-2.861,-2.8622,-2.8617,-2.8641,-2.8627,-2.8649,-2.8658,-2.8666,-2.869,-2.8732,-2.876,-2.8799,-2.8891,-2.8895,-2.8935,-2.8948,-2.896,-2.8969,-2.902,-2.9037,-2.8848,-2.8848,-2.8848,0,0,-2.8537,-2.8548,-2.8577,-2.8624,-2.8639,-2.8686,-2.8625,-2.8677,-2.8712,-2.8666,-2.8735,-2.8743,-2.8767,-2.8851,-2.8888,-2.886,-2.9023,-2.897,-2.8979,-2.8983,-2.903,-2.9048,-2.9064,-2.8853,-2.8852,-2.8851,0,0,-2.8654,-2.8667,-2.873,-2.8747,-2.877,-2.8766,-2.8782,-2.8798,-2.8801,-2.887,-2.8837,-2.8879,-2.8951,-2.897,-2.899,-2.9116,-2.9089,-2.913,-2.92,-2.9249,-2.9264,-2.9277,-2.9323,-2.9339,-2.914,-2.914,-2.914,0,-2.8715,-2.8784,-2.8766,-2.882,-2.8842,-2.8803,-2.8867,-2.8884,-2.892,-2.8936,-2.8905,-2.8996,-2.901,-2.9097,-2.9128,-2.9145,-2.9162,-2.9127,-2.9263,-2.9276,-2.9289,-2.9331,-2.9349,-2.9145,-2.9144,-2.9143,-2.9143,0,-2.8858,-2.8906,-2.8954,-2.8989,-2.9017,-2.9076,-2.9068,-2.9098,-2.9083,-2.9083,-2.9154,-2.9169,-2.9211,-2.9231,-2.9217,-2.9317,-2.9299,-2.9266,-2.921,-2.9312,-2.9352,-2.9368,-2.9151,-2.915,-2.9148,-2.9147,0,0,-2.9019,-2.9043,-2.9061,-2.9077,-2.91,-2.9138,-2.9196,-2.9236,-2.9262,-2.9289,-2.9337,-2.94,-2.937,-2.9392,-2.938,-2.9423,-2.9523,-2.9385,-2.9385,-2.941,-2.9635,-2.9659,-2.9678,-2.9505,-2.9508,-2.9511,-2.9632,0,-2.9136,-2.9235,-2.9221,-2.9317,-2.9362,-2.9326,-2.9377,-2.9398,-2.94,-2.9439,-2.9441,-2.9486,-2.9443,-2.9456,-2.9497,-2.9502,-2.9567,-2.9493,-2.9551,-2.9553,-2.9545,-2.9699,-2.9725,-2.9839,-2.9648,-2.9651,-2.9653,0,-2.9286,-2.9317,-2.9418,-2.9435,-2.9453,-2.9499,-2.9535,-2.9573,-2.9596,-2.9594,-2.962,-2.96,-2.9659,-2.9603,-2.9684,-2.9634,-2.9657,-2.9663,-2.9667,-2.9672,-2.9608,-2.9707,-2.9875,-2.9892,-2.9677,-2.9675,-2.9673,0,-2.9393,-2.9461,-2.9529,-2.9544,-2.9566,-2.9599,-2.961,-2.963,-2.9655,-2.9687,-2.9703,-2.9742,-2.9764,-2.9795,-2.9787,-2.9746,-2.9871,-2.9813,-2.9871,-2.9872,-2.9898,-2.9897,-3.0072,-2.9915,-2.9914,-2.9914,-2.9914,0,-2.9525,-2.9588,-2.9577,-2.962,-2.9689,-2.9674,-2.9743,-2.975,-2.9768,-2.9812,-2.9784,-2.9826,-2.9812,-2.9854,-2.9848,-2.9917,-2.9927,-2.9928,-2.9926,-2.993,-2.993,-2.9944,-2.9936,-2.9918,-2.9917,-2.9917,-2.9916,0,-2.9656,-2.9651,-2.9724,-2.9739,-2.9745,-2.9795,-2.9809,-2.9849,-2.9849,-2.9905,-2.9917,-2.9918,-2.9965,-2.996,-3.0014,-3.001,-3.0095,-3.0084,-3.0087,-3.0084,-3.0143,-3.0137,-3.0333,-3.0358,-3.0185,-3.0186,-3.0188,0,-2.974,-2.9788,-2.9808,-2.9835,-2.9848,-2.9892,-2.9918,-2.9905,-2.9933,-2.9963,-3.0,-3.0045,-3.008,-3.0158,-3.0164,-3.0205,-3.0194,-3.026,-3.02,-3.0203,-3.0195,-3.0192,-3.0197,-3.0271,-3.0273,-3.0275,-3.0276,0,-2.9891,-2.9886,-2.9924,-2.9961,-2.9993,-3.0022,-3.0048,-3.0072,-3.0061,-3.0095,-3.0142,-3.017,-3.0224,-3.027,-3.0309,-3.0321,-3.0298,-3.0295,-3.0311,-3.0316,-3.0316,-3.0316,-3.0119,-3.0291,-3.0289,-3.0288,-3.0287,-3.0287,-3.0,-3.0041,-3.0062,-3.0105,-3.0124,-3.0149,-3.0188,-3.0193,-3.0232,-3.0275,-3.0265,-3.032,-3.0343,-3.0393,-3.0409,-3.0452,-3.0429,-3.0451,-3.0457,-3.0463,-3.0469,-3.0309,-3.046,-3.0459,-3.0459,-3.0458,-3.0458,0,-3.0149,-3.0161,-3.0201,-3.0238,-3.0273,-3.0247,-3.0275,-3.0306,-3.0354,-3.0377,-3.0412,-3.0468,-3.0512,-3.0522,-3.0564,-3.0597,-3.0587,-3.0608,-3.0606,-3.0609,-3.0488,-3.047,-3.0616,-3.0616,-3.0615,-3.0615,-3.0615,-3.0615,-3.023,-3.0298,-3.0296,-3.0373,-3.0385,-3.0437,-3.0455,-3.0479,-3.0497,-3.0561,-3.0597,-3.0603,-3.0621,-3.0665,-3.0705,-3.0706,-3.0723,-3.0749,-3.0747,-3.0633,-3.0617,-3.0602,-3.0585,-3.0753,-3.0753,-3.0864,-3.0865,-3.0865]},{"header":{"parameterUnit":"m.s-1","parameterCategory":1,"la1":30.2991,"la2":30.254,"lo1":-89.0895,"lo2":-89.0444,"dy":0.0017,"dx":0.0017,"nx":28,"ny":28,"refTime":"2025-03-31T09:00:00:Z","depth":0,"parameterNumber":3,"parameterNumberName":"V-component_of_WINDS"},"data":[0,0,0,0,0,0,0,0,0,0,0,0,0,0,0,0,0,0,0,0,0,0,0,0,0,0,0,0,0,0,0,0,0,0,0,0,0,0,0,0,0,0,0,0,0,0,0,0,0,0,0,0,0,0,0,0,0,0,-0.2195,-0.2194,0,-0.2169,-0.2168,-0.2168,-0.2138,-0.2137,-0.2137,-0.2136,-0.2111,-0.2111,-0.211,0,0,0,0,0,0,0,0,0,0,0,0,0,-0.2218,-0.2218,-0.2195,-0.2194,-0.2194,-0.2169,-0.2168,-0.2168,-0.2138,-0.2137,-0.2137,-0.2136,-0.2111,-0.2111,-0.211,0,0,0,0,0,0,0,0,0,0,0,0,0,-0.2202,-0.2218,-0.2195,-0.2176,-0.2174,-0.2169,-0.2168,-0.2168,-0.2138,-0.2137,-0.2136,-0.2136,-0.2111,-0.2111,-0.211,-0.2122,0,0,-0.2109,-0.2109,0,0,0,0,0,0,0,0,-0.2203,-0.2201,-0.2179,-0.2177,-0.2175,-0.2156,-0.2167,-0.2153,-0.2138,-0.2152,-0.2136,-0.2135,-0.2126,-0.2125,-0.2121,-0.2121,-0.212,-0.2109,-0.2109,-0.2109,-0.2109,0,0,0,0,0,0,0,-0.2204,-0.2202,-0.2184,-0.2179,-0.2176,-0.2169,-0.2166,-0.2164,-0.2143,-0.215,-0.2148,-0.2145,-0.2125,-0.2122,-0.2121,-0.2119,-0.2109,-0.2109,-0.2109,-0.2108,-0.2126,-0.2127,0,0,0,0,0,0,-0.2208,-0.2203,-0.2185,-0.2184,-0.2187,-0.2169,-0.2165,-0.2163,-0.2143,-0.214,-0.2146,-0.2144,-0.2123,-0.2121,-0.212,-0.2131,-0.2109,-0.2108,-0.2108,-0.2125,-0.2126,-0.2127,0,0,0,0,0,0,-0.2209,-0.2207,-0.2186,-0.2193,-0.219,-0.2169,-0.2166,-0.2162,-0.2159,-0.214,-0.2136,-0.2146,-0.2122,-0.212,-0.2121,-0.213,-0.2108,-0.2108,-0.2125,-0.2126,-0.2127,-0.2156,0,0,0,0,0,0,-0.2209,-0.2207,-0.2211,-0.2193,-0.2189,-0.2189,-0.2167,-0.2162,-0.2158,-0.2156,-0.2139,-0.2136,-0.2121,-0.2122,-0.2121,-0.2129,-0.2108,-0.2124,-0.2125,-0.2126,-0.2154,-0.2158,-0.2161,0,0,0,0,0,-0.221,-0.2221,-0.2212,-0.221,-0.2194,-0.2189,-0.2187,-0.217,-0.2159,-0.2163,-0.2151,-0.2136,-0.2129,-0.2122,-0.2121,-0.2129,-0.2123,-0.2125,-0.2126,-0.2152,-0.2157,-0.2161,0,0,0,0,0,0,-0.2241,-0.2218,-0.2208,-0.2213,-0.2203,-0.2184,-0.2189,-0.2175,-0.2169,-0.2167,-0.2146,-0.2142,-0.2146,-0.2138,-0.213,-0.2139,-0.2124,-0.2125,-0.2144,-0.2149,-0.2152,-0.2154,-0.2107,0,0,0,0,0,-0.2249,-0.2246,-0.2226,-0.2233,-0.2228,-0.2209,-0.2206,-0.2194,-0.2183,-0.2179,-0.2167,-0.2157,-0.2153,-0.215,-0.2145,-0.2152,-0.2148,-0.2157,-0.2161,-0.2164,-0.2165,-0.2168,-0.2172,-0.2132,-0.2132,-0.2132,0,0,-0.2264,-0.2251,-0.2251,-0.2238,-0.2229,-0.2227,-0.2206,-0.2205,-0.2203,-0.2179,-0.2179,-0.217,-0.2158,-0.2162,-0.2163,-0.2155,-0.2175,-0.2166,-0.2168,-0.2168,-0.217,-0.2174,-0.2177,-0.2133,-0.2133,-0.2133,0,0,-0.2291,-0.2281,-0.2285,-0.2276,-0.2262,-0.2249,-0.225,-0.2233,-0.2226,-0.2225,-0.2207,-0.2205,-0.2197,-0.2189,-0.2184,-0.2207,-0.2193,-0.2206,-0.2224,-0.2227,-0.223,-0.2233,-0.224,-0.2243,-0.2207,-0.2207,-0.2207,0,-0.2311,-0.2307,-0.2288,-0.2288,-0.2283,-0.226,-0.2264,-0.2256,-0.2242,-0.2239,-0.223,-0.222,-0.221,-0.2212,-0.2217,-0.2214,-0.2215,-0.2208,-0.2231,-0.2234,-0.2236,-0.2243,-0.2246,-0.2209,-0.2209,-0.2209,-0.2208,0,-0.2333,-0.2331,-0.2336,-0.2322,-0.2317,-0.2319,-0.23,-0.2298,-0.2285,-0.2273,-0.2273,-0.2261,-0.2252,-0.2252,-0.224,-0.2251,-0.2247,-0.2235,-0.2219,-0.2241,-0.2248,-0.225,-0.2211,-0.2211,-0.221,-0.221,0,0,-0.2379,-0.2354,-0.2356,-0.2349,-0.2332,-0.233,-0.233,-0.2322,-0.232,-0.2311,-0.231,-0.2304,-0.2293,-0.2287,-0.2274,-0.2277,-0.2295,-0.2264,-0.2264,-0.227,-0.2306,-0.2315,-0.2319,-0.2286,-0.2286,-0.2287,-0.2307,0,-0.2403,-0.2402,-0.2384,-0.2388,-0.2386,-0.2364,-0.2364,-0.2354,-0.2343,-0.2338,-0.2326,-0.2322,-0.2307,-0.2304,-0.2305,-0.2292,-0.2302,-0.2291,-0.2285,-0.2285,-0.2289,-0.2322,-0.2332,-0.2352,-0.231,-0.231,-0.231,0,-0.243,-0.2421,-0.2425,-0.2407,-0.2405,-0.2406,-0.2396,-0.2393,-0.238,-0.2372,-0.2365,-0.235,-0.235,-0.2335,-0.2333,-0.2326,-0.2323,-0.2316,-0.2316,-0.2315,-0.2299,-0.2322,-0.2358,-0.2361,-0.2314,-0.2314,-0.2314,0,-0.2462,-0.2452,-0.2453,-0.2448,-0.2427,-0.2428,-0.2419,-0.2406,-0.2402,-0.2393,-0.239,-0.2382,-0.2377,-0.2371,-0.2354,-0.2345,-0.2355,-0.2339,-0.2348,-0.2348,-0.2351,-0.2351,-0.2387,-0.2349,-0.2349,-0.2349,-0.2349,0,-0.249,-0.2493,-0.2467,-0.2467,-0.247,-0.245,-0.2453,-0.2442,-0.2431,-0.2429,-0.241,-0.2408,-0.2386,-0.2382,-0.2369,-0.2369,-0.2368,-0.2361,-0.2357,-0.2363,-0.2363,-0.236,-0.2358,-0.235,-0.235,-0.2349,-0.2349,0,-0.2527,-0.2509,-0.2509,-0.2489,-0.2484,-0.2487,-0.247,-0.2469,-0.2457,-0.2454,-0.2453,-0.2433,-0.2427,-0.241,-0.24,-0.2391,-0.2395,-0.2389,-0.2399,-0.2397,-0.2407,-0.2406,-0.2442,-0.2446,-0.2406,-0.2406,-0.2407,0,-0.2546,-0.2547,-0.2528,-0.2525,-0.2517,-0.2512,-0.2507,-0.2488,-0.2483,-0.2469,-0.247,-0.2463,-0.2456,-0.2448,-0.2433,-0.2425,-0.2418,-0.2431,-0.2417,-0.2421,-0.2418,-0.2418,-0.2417,-0.2434,-0.2435,-0.2435,-0.2435,0,-0.2581,-0.2572,-0.2565,-0.2556,-0.255,-0.2542,-0.2533,-0.2531,-0.2509,-0.2505,-0.2499,-0.2494,-0.2483,-0.2476,-0.2465,-0.2457,-0.2442,-0.244,-0.2442,-0.2447,-0.2453,-0.2449,-0.2408,-0.2439,-0.2439,-0.2439,-0.2438,-0.2438,-0.2608,-0.2609,-0.2595,-0.2588,-0.2579,-0.257,-0.2569,-0.2555,-0.255,-0.2539,-0.2528,-0.2523,-0.251,-0.2494,-0.2487,-0.2482,-0.2475,-0.2477,-0.2478,-0.2478,-0.2481,-0.2453,-0.248,-0.248,-0.248,-0.248,-0.248,0,-0.2642,-0.2632,-0.2626,-0.2613,-0.2608,-0.2594,-0.2583,-0.2579,-0.2575,-0.2564,-0.2557,-0.255,-0.2543,-0.2527,-0.2518,-0.2518,-0.2511,-0.2516,-0.2516,-0.2514,-0.2488,-0.2488,-0.2522,-0.2522,-0.2522,-0.2522,-0.2522,-0.2522,-0.2659,-0.2658,-0.2648,-0.2642,-0.2632,-0.2626,-0.2621,-0.2613,-0.2604,-0.2596,-0.259,-0.258,-0.2567,-0.2557,-0.2549,-0.2545,-0.2543,-0.255,-0.2543,-0.252,-0.2516,-0.2512,-0.2511,-0.255,-0.255,-0.2569,-0.2569,-0.257]}]]